Time,TemperatureF,DewpointF,PressureIn,WindDirection,WindDirectionDegrees,WindSpeedMPH,WindSpeedGustMPH,Humidity,HourlyPrecipIn,Conditions,Clouds,dailyrainin,SoftwareType,DateUTC
2013-01-08 00:00:00,53.6,51.7,29.98,NE,45,3.0,3.0,93,0.00,CL,CL,0.03,WeatherDisplay:10.37,2013-01-08 00:00:00,
2013-01-08 01:00:00,53.6,51.9,30.00,West,270,3.0,5.0,94,0.00,CL,CL,0.03,WeatherDisplay:10.37,2013-01-08 01:00:00,
2013-01-08 02:00:00,51.3,49.3,30.04,SE,135,3.0,7.0,93,0.00,CL,CL,0.03,WeatherDisplay:10.37,2013-01-08 02:00:00,
2013-01-08 03:00:00,50.5,48.6,30.07,ESE,113,5.0,7.0,93,0.00,CL,CL,0.03,WeatherDisplay:10.37,2013-01-08 03:00:00,
2013-01-08 04:00:00,49.8,47.3,30.10,West,270,2.0,6.0,91,0.00,CL,CL,0.03,WeatherDisplay:10.37,2013-01-08 04:00:00,
2013-01-08 05:00:00,50.2,46.8,30.11,West,270,2.0,2.0,88,0.00,CL,CL,0.03,WeatherDisplay:10.37,2013-01-08 05:00:00,
2013-01-08 06:00:00,50.1,46.3,30.13,SE,135,5.0,6.0,87,0.00,CL,CL,0.03,WeatherDisplay:10.37,2013-01-08 06:00:00,
2013-01-08 07:00:00,49.5,45.8,30.12,West,270,6.0,6.0,87,0.00,CL,CL,0.03,WeatherDisplay:10.37,2013-01-08 07:00:00,
2013-01-08 08:00:00,49.5,45.4,30.12,WSW,248,5.0,5.0,86,0.00,CL,CL,0.03,WeatherDisplay:10.37,2013-01-08 08:00:00,
2013-01-08 09:00:00,47.2,43.9,30.12,WSW,248,2.0,2.0,88,0.00,CL,CL,0.03,WeatherDisplay:10.37,2013-01-08 09:00:00,
2013-01-08 10:00:00,45.5,42.7,30.15,WSW,248,2.0,7.0,90,0.00,CL,CL,0.03,WeatherDisplay:10.37,2013-01-08 10:00:00,
2013-01-08 11:00:00,43.7,41.5,30.15,WSW,248,1.0,0.0,92,0.00,CL,CL,0.03,WeatherDisplay:10.37,2013-01-08 11:00:00,
2013-01-08 12:00:00,41.5,39.9,30.16,WSW,248,1.0,2.0,94,0.00,CL,CL,0.03,WeatherDisplay:10.37,2013-01-08 12:00:00,
2013-01-08 13:00:00,41.0,39.7,30.17,WSW,248,1.0,1.0,95,0.00,CL,CL,0.03,WeatherDisplay:10.37,2013-01-08 13:00:00,
2013-01-08 20:58:00,37.9,35.8,29.42,WSW,248,7.0,8.0,92,0.00,,CL,0.03,WeatherDisplay:10.37,2013-01-08 20:58:00,
2013-01-08 21:03:00,39.9,38.6,30.17,ESE,122,0.0,0.2,95,0.00,FEW,,0.03,WeatherDisplay:10.37,2013-01-08 21:03:00,
2013-01-08 21:08:00,39.7,38.4,30.17,WSW,258,0.0,0.1,95,0.00,FEW,,0.03,WeatherDisplay:10.37,2013-01-08 21:08:00,
2013-01-08 21:13:00,39.7,38.4,30.17,WSW,258,0.0,0.0,95,0.00,FEW,,0.03,WeatherDisplay:10.37,2013-01-08 21:13:00,
2013-01-08 21:18:00,39.2,37.9,30.18,WSW,258,1.1,1.1,95,0.00,FEW,,0.03,WeatherDisplay:10.37,2013-01-08 21:18:00,
2013-01-08 21:25:00,39.0,37.7,30.18,WSW,258,0.0,0.2,95,0.00,FEW,,0.03,WeatherDisplay:10.37,2013-01-08 21:25:00,
2013-01-08 22:37:00,-167.8,99.9,30.18,SE,135,1.5,0.0,110,0.00,CLR,FEW,0.03,WeatherDisplay:10.37,2013-01-08 22:37:00,
2013-01-08 22:42:00,37.6,36.5,30.18,ESE,122,2.3,2.3,96,0.00,FEW,,0.03,WeatherDisplay:10.37,2013-01-08 22:42:00,
2013-01-08 22:48:00,37.6,36.5,30.18,WSW,258,1.1,1.1,96,0.00,FEW,,0.03,WeatherDisplay:10.37,2013-01-08 22:48:00,
2013-01-08 22:53:00,37.6,36.5,30.18,WSW,258,2.3,2.3,96,0.00,FEW,,0.03,WeatherDisplay:10.37,2013-01-08 22:53:00,
2013-01-08 22:58:00,37.6,36.5,30.18,West,280,2.3,2.3,96,0.00,FEW,,0.03,WeatherDisplay:10.37,2013-01-08 22:58:00,
2013-01-08 23:03:00,37.6,36.5,30.18,WSW,258,2.3,2.3,96,0.00,FEW,,0.03,WeatherDisplay:10.37,2013-01-08 23:03:00,
2013-01-08 23:08:00,37.6,36.5,30.18,ESE,122,1.1,1.1,96,0.00,FEW,,0.03,WeatherDisplay:10.37,2013-01-08 23:08:00,
2013-01-08 23:13:00,37.6,36.5,30.18,ESE,122,0.0,0.4,96,0.00,FEW,,0.03,WeatherDisplay:10.37,2013-01-08 23:13:00,
2013-01-08 23:18:00,37.6,36.5,30.18,West,280,2.3,2.3,96,0.00,FEW,,0.03,WeatherDisplay:10.37,2013-01-08 23:18:00,
2013-01-08 23:23:00,37.6,36.8,30.18,WSW,258,1.1,1.1,97,0.00,FEW,,0.03,WeatherDisplay:10.37,2013-01-08 23:23:00,